Year,Month,Day,Hour,Minute,Value (Times are PST for barometer in hPa)
2016,10,14,00,00,959.70
2016,10,14,00,01,959.77
2016,10,14,00,02,959.70
2016,10,14,00,03,959.77
2016,10,14,00,04,959.70
2016,10,14,00,05,959.70
2016,10,14,00,06,959.67
2016,10,14,00,07,959.67
2016,10,14,00,08,959.67
2016,10,14,00,09,959.60
2016,10,14,00,10,959.57
2016,10,14,00,11,959.60
2016,10,14,00,12,959.50
2016,10,14,00,13,959.53
2016,10,14,00,14,959.53
2016,10,14,00,15,959.50
2016,10,14,00,16,959.47
2016,10,14,00,17,959.53
2016,10,14,00,18,959.53
2016,10,14,00,19,959.50
2016,10,14,00,20,959.53
2016,10,14,00,21,959.53
2016,10,14,00,22,959.53
2016,10,14,00,23,959.57
2016,10,14,00,24,959.57
2016,10,14,00,25,959.60
2016,10,14,00,26,959.63
2016,10,14,00,27,959.63
2016,10,14,00,28,959.67
2016,10,14,00,29,959.63
2016,10,14,00,30,959.74
2016,10,14,00,31,959.77
2016,10,14,00,32,959.77
2016,10,14,00,33,959.80
2016,10,14,00,34,959.87
2016,10,14,00,35,959.84
2016,10,14,00,36,959.87
2016,10,14,00,37,959.91
2016,10,14,00,38,959.91
2016,10,14,00,39,959.94
2016,10,14,00,40,959.91
2016,10,14,00,41,959.94
2016,10,14,00,42,959.94
2016,10,14,00,43,959.94
2016,10,14,00,44,960.01
2016,10,14,00,45,960.01
2016,10,14,00,46,960.01
2016,10,14,00,47,960.04
2016,10,14,00,48,960.01
2016,10,14,00,49,960.04
2016,10,14,00,50,960.04
2016,10,14,00,51,960.08
2016,10,14,00,52,960.08
2016,10,14,00,53,960.11
2016,10,14,00,54,960.14
2016,10,14,00,55,960.14
2016,10,14,00,56,960.18
2016,10,14,00,57,960.21
2016,10,14,00,58,960.21
2016,10,14,00,59,960.28
2016,10,14,01,00,960.31
2016,10,14,01,01,960.31
2016,10,14,01,02,960.31
2016,10,14,01,03,960.38
2016,10,14,01,04,960.41
2016,10,14,01,05,960.45
2016,10,14,01,06,960.45
2016,10,14,01,07,960.52
2016,10,14,01,08,960.58
2016,10,14,01,09,960.58
2016,10,14,01,10,960.58
2016,10,14,01,11,960.58
2016,10,14,01,12,960.65
2016,10,14,01,13,960.65
2016,10,14,01,14,960.65
2016,10,14,01,15,960.68
2016,10,14,01,16,960.75
2016,10,14,01,17,960.79
2016,10,14,01,18,960.82
2016,10,14,01,19,960.85
2016,10,14,01,20,960.92
2016,10,14,01,21,960.89
2016,10,14,01,22,960.96
2016,10,14,01,23,961.02
2016,10,14,01,24,961.06
2016,10,14,01,25,961.09
2016,10,14,01,26,961.12
2016,10,14,01,27,961.19
2016,10,14,01,28,961.23
2016,10,14,01,29,961.29
2016,10,14,01,30,961.36
2016,10,14,01,31,961.36
2016,10,14,01,32,961.43
2016,10,14,01,33,961.46
2016,10,14,01,34,961.50
2016,10,14,01,35,961.50
2016,10,14,01,36,961.57
2016,10,14,01,37,961.53
2016,10,14,01,38,961.67
2016,10,14,01,39,961.67
2016,10,14,01,40,961.77
2016,10,14,01,41,961.77
2016,10,14,01,42,961.87
2016,10,14,01,43,961.94
2016,10,14,01,44,962.01
2016,10,14,01,45,962.07
2016,10,14,01,46,962.11
2016,10,14,01,47,962.17
2016,10,14,01,48,962.21
2016,10,14,01,49,962.28
2016,10,14,01,50,962.31
2016,10,14,01,51,962.38
2016,10,14,01,52,962.34
2016,10,14,01,53,962.38
2016,10,14,01,54,962.45
2016,10,14,01,55,962.48
2016,10,14,01,56,962.55
2016,10,14,01,57,962.61
2016,10,14,01,58,962.58
2016,10,14,01,59,962.61
2016,10,14,02,00,962.65
2016,10,14,02,01,962.65
2016,10,14,02,02,962.61
2016,10,14,02,03,962.61
2016,10,14,02,04,962.65
2016,10,14,02,05,962.72
2016,10,14,02,06,962.78
2016,10,14,02,07,962.85
2016,10,14,02,08,962.92
2016,10,14,02,09,962.89
2016,10,14,02,10,962.95
2016,10,14,02,11,962.99
2016,10,14,02,12,963.09
2016,10,14,02,13,963.16
2016,10,14,02,14,963.16
2016,10,14,02,15,963.19
2016,10,14,02,16,963.22
2016,10,14,02,17,963.22
2016,10,14,02,18,963.22
2016,10,14,02,19,963.26
2016,10,14,02,20,963.22
2016,10,14,02,21,963.19
2016,10,14,02,22,963.19
2016,10,14,02,23,963.19
2016,10,14,02,24,963.19
2016,10,14,02,25,963.16
2016,10,14,02,26,963.16
2016,10,14,02,27,963.16
2016,10,14,02,28,963.16
2016,10,14,02,29,963.12
2016,10,14,02,30,963.22
2016,10,14,02,31,963.29
2016,10,14,02,32,963.36
2016,10,14,02,33,963.39
2016,10,14,02,34,963.43
2016,10,14,02,35,963.46
2016,10,14,02,36,963.43
2016,10,14,02,37,963.46
2016,10,14,02,38,963.43
2016,10,14,02,39,963.46
2016,10,14,02,40,963.46
2016,10,14,02,41,963.53
2016,10,14,02,42,963.56
2016,10,14,02,43,963.50
2016,10,14,02,44,963.53
2016,10,14,02,45,963.56
2016,10,14,02,46,963.56
2016,10,14,02,47,963.66
2016,10,14,02,48,963.70
2016,10,14,02,49,963.66
2016,10,14,02,50,963.70
2016,10,14,02,51,963.70
2016,10,14,02,52,963.56
2016,10,14,02,53,963.53
2016,10,14,02,54,963.63
2016,10,14,02,55,963.66
2016,10,14,02,56,963.66
2016,10,14,02,57,963.66
2016,10,14,02,58,963.70
2016,10,14,02,59,963.73
2016,10,14,03,00,963.73
2016,10,14,03,01,963.77
2016,10,14,03,02,963.87
2016,10,14,03,03,963.80
2016,10,14,03,04,963.83
2016,10,14,03,05,963.87
2016,10,14,03,06,963.90
2016,10,14,03,07,964.04
2016,10,14,03,08,964.00
2016,10,14,03,09,964.10
2016,10,14,03,10,964.10
2016,10,14,03,11,964.21
2016,10,14,03,12,964.17
2016,10,14,03,13,964.21
2016,10,14,03,14,964.21
2016,10,14,03,15,964.27
2016,10,14,03,16,964.24
2016,10,14,03,17,964.10
2016,10,14,03,18,964.17
2016,10,14,03,19,964.21
2016,10,14,03,20,964.24
2016,10,14,03,21,964.21
2016,10,14,03,22,964.21
2016,10,14,03,23,964.31
2016,10,14,03,24,964.27
2016,10,14,03,25,964.31
2016,10,14,03,26,964.27
2016,10,14,03,27,964.24
2016,10,14,03,28,964.31
2016,10,14,03,29,964.21
2016,10,14,03,30,964.34
2016,10,14,03,31,964.31
2016,10,14,03,32,964.31
2016,10,14,03,33,964.27
2016,10,14,03,34,964.21
2016,10,14,03,35,964.41
2016,10,14,03,36,964.34
2016,10,14,03,37,964.41
2016,10,14,03,38,964.34
2016,10,14,03,39,964.41
2016,10,14,03,40,964.38
2016,10,14,03,41,964.31
2016,10,14,03,42,964.38
2016,10,14,03,43,964.44
2016,10,14,03,44,964.51
2016,10,14,03,45,964.48
2016,10,14,03,46,964.51
2016,10,14,03,47,964.51
2016,10,14,03,48,964.48
2016,10,14,03,49,964.38
2016,10,14,03,50,964.48
2016,10,14,03,51,964.58
2016,10,14,03,52,964.48
2016,10,14,03,53,964.58
2016,10,14,03,54,964.61
2016,10,14,03,55,964.48
2016,10,14,03,56,964.55
2016,10,14,03,57,964.61
2016,10,14,03,58,964.58
2016,10,14,03,59,964.55
2016,10,14,04,00,964.48
2016,10,14,04,01,964.55
2016,10,14,04,02,964.48
2016,10,14,04,03,964.51
2016,10,14,04,04,964.48
2016,10,14,04,05,964.48
2016,10,14,04,06,964.44
2016,10,14,04,07,964.44
2016,10,14,04,08,964.44
2016,10,14,04,09,964.44
2016,10,14,04,10,964.44
2016,10,14,04,11,964.44
2016,10,14,04,12,964.44
2016,10,14,04,13,964.48
2016,10,14,04,14,964.48
2016,10,14,04,15,964.58
2016,10,14,04,16,964.44
2016,10,14,04,17,964.44
2016,10,14,04,18,964.48
2016,10,14,04,19,964.44
2016,10,14,04,20,964.51
2016,10,14,04,21,964.51
2016,10,14,04,22,964.51
2016,10,14,04,23,964.55
2016,10,14,04,24,964.48
2016,10,14,04,25,964.44
2016,10,14,04,26,964.51
2016,10,14,04,27,964.41
2016,10,14,04,28,964.48
2016,10,14,04,29,964.51
2016,10,14,04,30,964.44
2016,10,14,04,31,964.44
2016,10,14,04,32,964.44
2016,10,14,04,33,964.38
2016,10,14,04,34,964.41
2016,10,14,04,35,964.44
2016,10,14,04,36,964.44
2016,10,14,04,37,964.38
2016,10,14,04,38,964.31
2016,10,14,04,39,964.38
2016,10,14,04,40,964.41
2016,10,14,04,41,964.44
2016,10,14,04,42,964.31
2016,10,14,04,43,964.14
2016,10,14,04,44,964.34
2016,10,14,04,45,964.27
2016,10,14,04,46,964.34
2016,10,14,04,47,964.24
2016,10,14,04,48,964.31
2016,10,14,04,49,964.24
2016,10,14,04,50,964.27
2016,10,14,04,51,964.27
2016,10,14,04,52,964.17
2016,10,14,04,53,964.24
2016,10,14,04,54,964.34
2016,10,14,04,55,964.27
2016,10,14,04,56,964.27
2016,10,14,04,57,964.31
2016,10,14,04,58,964.31
2016,10,14,04,59,964.38
2016,10,14,05,00,964.48
2016,10,14,05,01,964.48
2016,10,14,05,02,964.44
2016,10,14,05,03,964.44
2016,10,14,05,04,964.48
2016,10,14,05,05,964.48
2016,10,14,05,06,964.48
2016,10,14,05,07,964.55
2016,10,14,05,08,964.38
2016,10,14,05,09,964.44
2016,10,14,05,10,964.48
2016,10,14,05,11,964.51
2016,10,14,05,12,964.51
2016,10,14,05,13,964.48
2016,10,14,05,14,964.48
2016,10,14,05,15,964.38
2016,10,14,05,16,964.38
2016,10,14,05,17,964.41
2016,10,14,05,18,964.48
2016,10,14,05,19,964.44
2016,10,14,05,20,964.51
2016,10,14,05,21,964.41
2016,10,14,05,22,964.55
2016,10,14,05,23,964.65
2016,10,14,05,24,964.61
2016,10,14,05,25,964.71
2016,10,14,05,26,964.75
2016,10,14,05,27,964.75
2016,10,14,05,28,964.78
2016,10,14,05,29,964.85
2016,10,14,05,30,964.78
2016,10,14,05,31,964.82
2016,10,14,05,32,964.78
2016,10,14,05,33,964.75
2016,10,14,05,34,964.65
2016,10,14,05,35,964.71
2016,10,14,05,36,964.58
2016,10,14,05,37,964.68
2016,10,14,05,38,964.58
2016,10,14,05,39,964.58
2016,10,14,05,40,964.65
2016,10,14,05,41,964.65
2016,10,14,05,42,964.61
2016,10,14,05,43,964.68
2016,10,14,05,44,964.61
2016,10,14,05,45,964.71
2016,10,14,05,46,964.71
2016,10,14,05,47,964.71
2016,10,14,05,48,964.75
2016,10,14,05,49,964.71
2016,10,14,05,50,964.78
2016,10,14,05,51,964.78
2016,10,14,05,52,964.78
2016,10,14,05,53,964.78
2016,10,14,05,54,964.85
2016,10,14,05,55,964.85
2016,10,14,05,56,964.85
2016,10,14,05,57,964.85
2016,10,14,05,58,964.82
2016,10,14,05,59,964.85
2016,10,14,06,00,964.92
2016,10,14,06,01,964.82
2016,10,14,06,02,964.85
2016,10,14,06,03,964.92
2016,10,14,06,04,964.88
2016,10,14,06,05,964.88
2016,10,14,06,06,964.88
2016,10,14,06,07,964.92
2016,10,14,06,08,964.95
2016,10,14,06,09,964.95
2016,10,14,06,10,964.88
2016,10,14,06,11,964.85
2016,10,14,06,12,964.88
2016,10,14,06,13,964.88
2016,10,14,06,14,964.92
2016,10,14,06,15,964.88
2016,10,14,06,16,964.85
2016,10,14,06,17,964.88
2016,10,14,06,18,964.92
2016,10,14,06,19,964.88
2016,10,14,06,20,964.92
2016,10,14,06,21,964.92
2016,10,14,06,22,964.95
2016,10,14,06,23,964.99
2016,10,14,06,24,964.95
2016,10,14,06,25,964.95
2016,10,14,06,26,964.92
2016,10,14,06,27,964.99
2016,10,14,06,28,965.02
2016,10,14,06,29,965.05
2016,10,14,06,30,965.09
2016,10,14,06,31,965.05
2016,10,14,06,32,965.09
2016,10,14,06,33,965.05
2016,10,14,06,34,965.02
2016,10,14,06,35,965.09
2016,10,14,06,36,965.05
2016,10,14,06,37,965.05
2016,10,14,06,38,965.02
2016,10,14,06,39,965.09
2016,10,14,06,40,965.05
2016,10,14,06,41,965.05
2016,10,14,06,42,965.15
2016,10,14,06,43,965.09
2016,10,14,06,44,965.05
2016,10,14,06,45,965.12
2016,10,14,06,46,965.15
2016,10,14,06,47,965.19
2016,10,14,06,48,965.19
2016,10,14,06,49,965.15
2016,10,14,06,50,965.19
2016,10,14,06,51,965.15
2016,10,14,06,52,965.09
2016,10,14,06,53,965.15
2016,10,14,06,54,965.15
2016,10,14,06,55,965.15
2016,10,14,06,56,965.12
2016,10,14,06,57,965.19
2016,10,14,06,58,965.12
2016,10,14,06,59,965.12
2016,10,14,07,00,965.15
2016,10,14,07,01,965.12
2016,10,14,07,02,965.09
2016,10,14,07,03,965.19
2016,10,14,07,04,965.19
2016,10,14,07,05,965.05
2016,10,14,07,06,965.09
2016,10,14,07,07,965.09
2016,10,14,07,08,965.09
2016,10,14,07,09,965.05
2016,10,14,07,10,965.12
2016,10,14,07,11,965.12
2016,10,14,07,12,965.12
2016,10,14,07,13,965.09
2016,10,14,07,14,965.12
2016,10,14,07,15,965.12
2016,10,14,07,16,965.12
2016,10,14,07,17,965.12
2016,10,14,07,18,965.09
2016,10,14,07,19,965.02
2016,10,14,07,20,965.09
2016,10,14,07,21,965.02
2016,10,14,07,22,964.99
2016,10,14,07,23,964.99
2016,10,14,07,24,965.02
2016,10,14,07,25,964.92
2016,10,14,07,26,964.99
2016,10,14,07,27,964.92
2016,10,14,07,28,964.95
2016,10,14,07,29,964.95
2016,10,14,07,30,964.92
2016,10,14,07,31,964.92
2016,10,14,07,32,964.95
2016,10,14,07,33,964.95
2016,10,14,07,34,964.92
2016,10,14,07,35,964.92
2016,10,14,07,36,964.88
2016,10,14,07,37,964.88
2016,10,14,07,38,964.85
2016,10,14,07,39,964.82
2016,10,14,07,40,964.85
2016,10,14,07,41,964.88
2016,10,14,07,42,964.88
2016,10,14,07,43,964.85
2016,10,14,07,44,964.82
2016,10,14,07,45,964.78
2016,10,14,07,46,964.82
2016,10,14,07,47,964.75
2016,10,14,07,48,964.78
2016,10,14,07,49,964.82
2016,10,14,07,50,964.82
2016,10,14,07,51,964.82
2016,10,14,07,52,964.85
2016,10,14,07,53,964.88
2016,10,14,07,54,964.78
2016,10,14,07,55,964.88
2016,10,14,07,56,964.88
2016,10,14,07,57,964.82
2016,10,14,07,58,964.85
2016,10,14,07,59,964.88
2016,10,14,08,00,964.82
2016,10,14,08,01,964.85
2016,10,14,08,02,964.92
2016,10,14,08,03,964.88
2016,10,14,08,04,964.92
2016,10,14,08,05,964.85
2016,10,14,08,06,964.92
2016,10,14,08,07,964.88
2016,10,14,08,08,964.85
2016,10,14,08,09,964.88
2016,10,14,08,10,964.95
2016,10,14,08,11,964.92
2016,10,14,08,12,964.92
2016,10,14,08,13,964.88
2016,10,14,08,14,964.88
2016,10,14,08,15,964.99
2016,10,14,08,16,964.95
2016,10,14,08,17,965.02
2016,10,14,08,18,965.05
2016,10,14,08,19,965.05
2016,10,14,08,20,965.05
2016,10,14,08,21,965.05
2016,10,14,08,22,964.99
2016,10,14,08,23,965.02
2016,10,14,08,24,965.02
2016,10,14,08,25,964.99
2016,10,14,08,26,964.99
2016,10,14,08,27,965.09
2016,10,14,08,28,965.05
2016,10,14,08,29,965.09
2016,10,14,08,30,965.12
2016,10,14,08,31,965.15
2016,10,14,08,32,965.09
2016,10,14,08,33,965.12
2016,10,14,08,34,965.12
2016,10,14,08,35,965.19
2016,10,14,08,36,965.22
2016,10,14,08,37,965.19
2016,10,14,08,38,965.12
2016,10,14,08,39,965.19
2016,10,14,08,40,965.15
2016,10,14,08,41,965.12
2016,10,14,08,42,965.19
2016,10,14,08,43,965.12
2016,10,14,08,44,965.19
2016,10,14,08,45,965.26
2016,10,14,08,46,965.29
2016,10,14,08,47,965.29
2016,10,14,08,48,965.19
2016,10,14,08,49,965.22
2016,10,14,08,50,965.26
2016,10,14,08,51,965.26
2016,10,14,08,52,965.22
2016,10,14,08,53,965.22
2016,10,14,08,54,965.36
2016,10,14,08,55,965.32
2016,10,14,08,56,965.36
2016,10,14,08,57,965.36
2016,10,14,08,58,965.36
2016,10,14,08,59,965.43
2016,10,14,09,00,965.39
2016,10,14,09,01,965.43
2016,10,14,09,02,965.43
2016,10,14,09,03,965.56
2016,10,14,09,04,965.56
2016,10,14,09,05,965.53
2016,10,14,09,06,965.59
2016,10,14,09,07,965.56
2016,10,14,09,08,965.53
2016,10,14,09,09,965.53
2016,10,14,09,10,965.56
2016,10,14,09,11,965.73
2016,10,14,09,12,965.73
2016,10,14,09,13,965.76
2016,10,14,09,14,965.80
2016,10,14,09,15,965.76
2016,10,14,09,16,965.83
2016,10,14,09,17,965.80
2016,10,14,09,18,965.76
2016,10,14,09,19,965.80
2016,10,14,09,20,965.80
2016,10,14,09,21,965.80
2016,10,14,09,22,965.80
2016,10,14,09,23,965.80
2016,10,14,09,24,965.76
2016,10,14,09,25,965.76
2016,10,14,09,26,965.73
2016,10,14,09,27,965.76
2016,10,14,09,28,965.80
2016,10,14,09,29,965.80
2016,10,14,09,30,965.83
2016,10,14,09,31,965.80
2016,10,14,09,32,965.76
2016,10,14,09,33,965.80
2016,10,14,09,34,965.76
2016,10,14,09,35,965.80
2016,10,14,09,36,965.80
2016,10,14,09,37,965.73
2016,10,14,09,38,965.76
2016,10,14,09,39,965.70
2016,10,14,09,40,965.73
2016,10,14,09,41,965.73
2016,10,14,09,42,965.70
2016,10,14,09,43,965.70
2016,10,14,09,44,965.73
2016,10,14,09,45,965.73
2016,10,14,09,46,965.76
2016,10,14,09,47,965.73
2016,10,14,09,48,965.73
2016,10,14,09,49,965.73
2016,10,14,09,50,965.76
2016,10,14,09,51,965.76
2016,10,14,09,52,965.76
2016,10,14,09,53,965.70
2016,10,14,09,54,965.76
2016,10,14,09,55,965.73
2016,10,14,09,56,965.70
2016,10,14,09,57,965.70
2016,10,14,09,58,965.73
2016,10,14,09,59,965.70
2016,10,14,10,00,965.70
2016,10,14,10,01,965.73
2016,10,14,10,02,965.73
2016,10,14,10,03,965.70
2016,10,14,10,04,965.76
2016,10,14,10,05,965.73
2016,10,14,10,06,965.76
2016,10,14,10,07,965.76
2016,10,14,10,08,965.76
2016,10,14,10,09,965.73
2016,10,14,10,10,965.70
2016,10,14,10,11,965.76
2016,10,14,10,12,965.80
2016,10,14,10,13,965.76
2016,10,14,10,14,965.83
2016,10,14,10,15,965.83
2016,10,14,10,16,965.87
2016,10,14,10,17,965.93
2016,10,14,10,18,965.93
2016,10,14,10,19,965.90
2016,10,14,10,20,965.90
2016,10,14,10,21,965.83
2016,10,14,10,22,965.87
2016,10,14,10,23,965.87
2016,10,14,10,24,965.90
2016,10,14,10,25,965.93
2016,10,14,10,26,965.90
2016,10,14,10,27,965.90
2016,10,14,10,28,965.93
2016,10,14,10,29,965.97
2016,10,14,10,30,965.90
2016,10,14,10,31,965.87
2016,10,14,10,32,965.87
2016,10,14,10,33,965.87
2016,10,14,10,34,965.87
2016,10,14,10,35,965.90
2016,10,14,10,36,965.93
2016,10,14,10,37,965.93
2016,10,14,10,38,965.97
2016,10,14,10,39,965.97
2016,10,14,10,40,966.00
2016,10,14,10,41,965.97
2016,10,14,10,42,965.97
2016,10,14,10,43,965.97
2016,10,14,10,44,965.97
2016,10,14,10,45,965.97
2016,10,14,10,46,965.93
2016,10,14,10,47,965.97
2016,10,14,10,48,965.97
2016,10,14,10,49,966.00
2016,10,14,10,50,965.97
2016,10,14,10,51,966.04
2016,10,14,10,52,966.04
2016,10,14,10,53,966.00
2016,10,14,10,54,966.04
2016,10,14,10,55,966.00
2016,10,14,10,56,966.04
2016,10,14,10,57,966.07
2016,10,14,10,58,966.10
2016,10,14,10,59,966.10
2016,10,14,11,00,966.10
2016,10,14,11,01,966.14
2016,10,14,11,02,966.14
2016,10,14,11,03,966.14
2016,10,14,11,04,966.20
2016,10,14,11,05,966.24
2016,10,14,11,06,966.24
2016,10,14,11,07,966.27
2016,10,14,11,08,966.31
2016,10,14,11,09,966.31
2016,10,14,11,10,966.34
2016,10,14,11,11,966.34
2016,10,14,11,12,966.31
2016,10,14,11,13,966.37
2016,10,14,11,14,966.34
2016,10,14,11,15,966.37
2016,10,14,11,16,966.37
2016,10,14,11,17,966.37
2016,10,14,11,18,966.41
2016,10,14,11,19,966.48
2016,10,14,11,20,966.44
2016,10,14,11,21,966.44
2016,10,14,11,22,966.48
2016,10,14,11,23,966.51
2016,10,14,11,24,966.48
2016,10,14,11,25,966.51
2016,10,14,11,26,966.44
2016,10,14,11,27,966.48
2016,10,14,11,28,966.51
2016,10,14,11,29,966.51
2016,10,14,11,30,966.54
2016,10,14,11,31,966.54
2016,10,14,11,32,966.58
2016,10,14,11,33,966.61
2016,10,14,11,34,966.64
2016,10,14,11,35,966.61
2016,10,14,11,36,966.64
2016,10,14,11,37,966.64
2016,10,14,11,38,966.61
2016,10,14,11,39,966.61
2016,10,14,11,40,966.64
2016,10,14,11,41,966.71
2016,10,14,11,42,966.68
2016,10,14,11,43,966.71
2016,10,14,11,44,966.68
2016,10,14,11,45,966.71
2016,10,14,11,46,966.71
2016,10,14,11,47,966.68
2016,10,14,11,48,966.64
2016,10,14,11,49,966.68
2016,10,14,11,50,966.68
2016,10,14,11,51,966.64
2016,10,14,11,52,966.64
2016,10,14,11,53,966.64
2016,10,14,11,54,966.68
2016,10,14,11,55,966.75
2016,10,14,11,56,966.75
2016,10,14,11,57,966.75
2016,10,14,11,58,966.75
2016,10,14,11,59,966.81
2016,10,14,12,00,966.85
2016,10,14,12,01,966.88
2016,10,14,12,02,966.88
2016,10,14,12,03,966.95
2016,10,14,12,04,966.95
2016,10,14,12,05,966.98
2016,10,14,12,06,967.02
2016,10,14,12,07,967.05
2016,10,14,12,08,967.05
2016,10,14,12,09,967.08
2016,10,14,12,10,967.08
2016,10,14,12,11,967.15
2016,10,14,12,12,967.15
2016,10,14,12,13,967.15
2016,10,14,12,14,967.19
2016,10,14,12,15,967.19
2016,10,14,12,16,967.19
2016,10,14,12,17,967.22
2016,10,14,12,18,967.25
2016,10,14,12,19,967.22
2016,10,14,12,20,967.22
2016,10,14,12,21,967.25
2016,10,14,12,22,967.22
2016,10,14,12,23,967.25
2016,10,14,12,24,967.29
2016,10,14,12,25,967.32
2016,10,14,12,26,967.29
2016,10,14,12,27,967.32
2016,10,14,12,28,967.29
2016,10,14,12,29,967.36
2016,10,14,12,30,967.32
2016,10,14,12,31,967.36
2016,10,14,12,32,967.39
2016,10,14,12,33,967.39
2016,10,14,12,34,967.42
2016,10,14,12,35,967.42
2016,10,14,12,36,967.49
2016,10,14,12,37,967.53
2016,10,14,12,38,967.56
2016,10,14,12,39,967.59
2016,10,14,12,40,967.59
2016,10,14,12,41,967.63
2016,10,14,12,42,967.63
2016,10,14,12,43,967.66
2016,10,14,12,44,967.73
2016,10,14,12,45,967.69
2016,10,14,12,46,967.73
2016,10,14,12,47,967.73
2016,10,14,12,48,967.76
2016,10,14,12,49,967.76
2016,10,14,12,50,967.80
2016,10,14,12,51,967.80
2016,10,14,12,52,967.83
2016,10,14,12,53,967.83
2016,10,14,12,54,967.86
2016,10,14,12,55,967.90
2016,10,14,12,56,967.93
2016,10,14,12,57,967.93
2016,10,14,12,58,967.93
2016,10,14,12,59,968.00
2016,10,14,13,00,967.97
2016,10,14,13,01,967.97
2016,10,14,13,02,968.00
2016,10,14,13,03,967.97
2016,10,14,13,04,968.00
2016,10,14,13,05,968.03
2016,10,14,13,06,968.07
2016,10,14,13,07,968.07
2016,10,14,13,08,968.10
2016,10,14,13,09,968.13
2016,10,14,13,10,968.17
2016,10,14,13,11,968.13
2016,10,14,13,12,968.20
2016,10,14,13,13,968.24
2016,10,14,13,14,968.24
2016,10,14,13,15,968.24
2016,10,14,13,16,968.24
2016,10,14,13,17,968.30
2016,10,14,13,18,968.34
2016,10,14,13,19,968.37
2016,10,14,13,20,968.37
2016,10,14,13,21,968.41
2016,10,14,13,22,968.41
2016,10,14,13,23,968.44
2016,10,14,13,24,968.44
2016,10,14,13,25,968.44
2016,10,14,13,26,968.47
2016,10,14,13,27,968.47
2016,10,14,13,28,968.51
2016,10,14,13,29,968.54
2016,10,14,13,30,968.54
2016,10,14,13,31,968.58
2016,10,14,13,32,968.58
2016,10,14,13,33,968.61
2016,10,14,13,34,968.68
2016,10,14,13,35,968.68
2016,10,14,13,36,968.71
2016,10,14,13,37,968.71
2016,10,14,13,38,968.71
2016,10,14,13,39,968.71
2016,10,14,13,40,968.78
2016,10,14,13,41,968.81
2016,10,14,13,42,968.85
2016,10,14,13,43,968.85
2016,10,14,13,44,968.88
2016,10,14,13,45,968.88
2016,10,14,13,46,968.91
2016,10,14,13,47,968.95
2016,10,14,13,48,968.98
2016,10,14,13,49,969.05
2016,10,14,13,50,969.08
2016,10,14,13,51,969.12
2016,10,14,13,52,969.08
2016,10,14,13,53,969.15
2016,10,14,13,54,969.15
2016,10,14,13,55,969.15
2016,10,14,13,56,969.15
2016,10,14,13,57,969.22
2016,10,14,13,58,969.18
2016,10,14,13,59,969.25
2016,10,14,14,00,969.32
2016,10,14,14,01,969.32
2016,10,14,14,02,969.35
2016,10,14,14,03,969.35
2016,10,14,14,04,969.42
2016,10,14,14,05,969.46
2016,10,14,14,06,969.49
2016,10,14,14,07,969.56
2016,10,14,14,08,969.59
2016,10,14,14,09,969.56
2016,10,14,14,10,969.62
2016,10,14,14,11,969.69
2016,10,14,14,12,969.73
2016,10,14,14,13,969.73
2016,10,14,14,14,969.73
2016,10,14,14,15,969.79
2016,10,14,14,16,969.83
2016,10,14,14,17,969.86
2016,10,14,14,18,969.83
2016,10,14,14,19,969.90
2016,10,14,14,20,969.93
2016,10,14,14,21,969.96
2016,10,14,14,22,970.00
2016,10,14,14,23,970.03
2016,10,14,14,24,970.03
2016,10,14,14,25,970.07
2016,10,14,14,26,970.03
2016,10,14,14,27,970.10
2016,10,14,14,28,970.13
2016,10,14,14,29,970.23
2016,10,14,14,30,970.23
2016,10,14,14,31,970.34
2016,10,14,14,32,970.40
2016,10,14,14,33,970.40
2016,10,14,14,34,970.44
2016,10,14,14,35,970.54
2016,10,14,14,36,970.51
2016,10,14,14,37,970.54
2016,10,14,14,38,970.54
2016,10,14,14,39,970.57
2016,10,14,14,40,970.61
2016,10,14,14,41,970.64
2016,10,14,14,42,970.71
2016,10,14,14,43,970.71
2016,10,14,14,44,970.67
2016,10,14,14,45,970.74
2016,10,14,14,46,970.78
2016,10,14,14,47,970.78
2016,10,14,14,48,970.88
2016,10,14,14,49,970.91
2016,10,14,14,50,970.95
2016,10,14,14,51,970.91
2016,10,14,14,52,971.01
2016,10,14,14,53,970.98
2016,10,14,14,54,971.05
2016,10,14,14,55,971.08
2016,10,14,14,56,971.18
2016,10,14,14,57,971.18
2016,10,14,14,58,971.18
2016,10,14,14,59,971.22
2016,10,14,15,00,971.25
2016,10,14,15,01,971.25
2016,10,14,15,02,971.32
2016,10,14,15,03,971.28
2016,10,14,15,04,971.32
2016,10,14,15,05,971.39
2016,10,14,15,06,971.39
2016,10,14,15,07,971.45
2016,10,14,15,08,971.45
2016,10,14,15,09,971.45
2016,10,14,15,10,971.49
2016,10,14,15,11,971.55
2016,10,14,15,12,971.55
2016,10,14,15,13,971.55
2016,10,14,15,14,971.55
2016,10,14,15,15,971.59
2016,10,14,15,16,971.62
2016,10,14,15,17,971.69
2016,10,14,15,18,971.69
2016,10,14,15,19,971.72
2016,10,14,15,20,971.79
2016,10,14,15,21,971.83
2016,10,14,15,22,971.83
2016,10,14,15,23,971.89
2016,10,14,15,24,971.83
2016,10,14,15,25,971.89
2016,10,14,15,26,971.89
2016,10,14,15,27,972.00
2016,10,14,15,28,972.06
2016,10,14,15,29,972.03
2016,10,14,15,30,972.03
2016,10,14,15,31,972.06
2016,10,14,15,32,972.13
2016,10,14,15,33,972.13
2016,10,14,15,34,972.13
2016,10,14,15,35,972.16
2016,10,14,15,36,972.20
2016,10,14,15,37,972.27
2016,10,14,15,38,972.27
2016,10,14,15,39,972.27
2016,10,14,15,40,972.30
2016,10,14,15,41,972.33
2016,10,14,15,42,972.37
2016,10,14,15,43,972.33
2016,10,14,15,44,972.40
2016,10,14,15,45,972.44
2016,10,14,15,46,972.40
2016,10,14,15,47,972.50
2016,10,14,15,48,972.47
2016,10,14,15,49,972.50
2016,10,14,15,50,972.50
2016,10,14,15,51,972.57
2016,10,14,15,52,972.57
2016,10,14,15,53,972.60
2016,10,14,15,54,972.67
2016,10,14,15,55,972.67
2016,10,14,15,56,972.71
2016,10,14,15,57,972.74
2016,10,14,15,58,972.74
2016,10,14,15,59,972.71
2016,10,14,16,00,972.77
2016,10,14,16,01,972.77
2016,10,14,16,02,972.81
2016,10,14,16,03,972.77
2016,10,14,16,04,972.81
2016,10,14,16,05,972.88
2016,10,14,16,06,972.84
2016,10,14,16,07,972.91
2016,10,14,16,08,972.94
2016,10,14,16,09,973.01
2016,10,14,16,10,972.98
2016,10,14,16,11,972.98
2016,10,14,16,12,973.08
2016,10,14,16,13,973.11
2016,10,14,16,14,973.08
2016,10,14,16,15,973.11
2016,10,14,16,16,973.11
2016,10,14,16,17,973.18
2016,10,14,16,18,973.21
2016,10,14,16,19,973.21
2016,10,14,16,20,973.28
2016,10,14,16,21,973.28
2016,10,14,16,22,973.32
2016,10,14,16,23,973.35
2016,10,14,16,24,973.38
2016,10,14,16,25,973.35
2016,10,14,16,26,973.42
2016,10,14,16,27,973.42
2016,10,14,16,28,973.49
2016,10,14,16,29,973.52
2016,10,14,16,30,973.52
2016,10,14,16,31,973.52
2016,10,14,16,32,973.62
2016,10,14,16,33,973.62
2016,10,14,16,34,973.65
2016,10,14,16,35,973.65
2016,10,14,16,36,973.72